When you browse on this site, cookies collect data to enhance your experience and personalize the content and advertising you see.
Visit our Privacy Policy to learn more. By continuing to use the site, you agree to this use of cookies and data.
  • In Austria
  • List of Countries
  • For 7 days
  • Water Temperature
  • Satellite Maps
  • Weather Map
  • News
  • Weather Widgets
  • user-avatar
    Login

    Hourly Weather Nashavar

    Today, 20 April, Saturday

    Time Temperature Precipitation Wind Pressure Humidity
    00:00 +26°C° 0 mm 1 mps 728 mmHg 40%
    01:00 +26°C° 0 mm 1 mps 728 mmHg 41%
    02:00 +25°C° 0 mm 1 mps 727 mmHg 41%
    03:00 +25°C° 0 mm 1 mps 727 mmHg 41%
    04:00 +25°C° 0 mm 1 mps 727 mmHg 42%
    05:00 +24°C° 0 mm 1 mps 726 mmHg 43%
    06:00 +25°C° 0 mm 1 mps 727 mmHg 40%
    07:00 +26°C° 0 mm 1 mps 727 mmHg 38%
    08:00 +27°C° 0 mm 1 mps 727 mmHg 35%
    09:00 +28°C° 0 mm 1 mps 727 mmHg 30%
    10:00 +30°C° 0 mm 1 mps 727 mmHg 26%
    11:00 +31°C° 0 mm 1 mps 727 mmHg 21%
    12:00 +32°C° 0 mm 1 mps 727 mmHg 20%
    13:00 +32°C° 0 mm 1 mps 726 mmHg 20%
    14:00 +33°C° 0 mm 1 mps 726 mmHg 19%
    15:00 +34°C° 0 mm 2 mps 726 mmHg 21%
    16:00 +34°C° 0 mm 2 mps 726 mmHg 22%
    17:00 +34°C° 0 mm 2 mps 726 mmHg 24%
    18:00 +32°C° 0.1 mm 2 mps 726 mmHg 27%
    19:00 +30°C° 0.1 mm 2 mps 727 mmHg 29%
    20:00 +29°C° 0.1 mm 2 mps 727 mmHg 32%
    21:00 +28°C° 0 mm 1 mps 727 mmHg 34%
    22:00 +28°C° 0 mm 1 mps 727 mmHg 37%
    23:00 +25°C° 0 mm 0 mps 727 mmHg 39%

    Tomorrow, 21 April, Sunday

    Time Temperature Precipitation Wind Pressure Humidity
    00:00 +25°C° 0.1 mm 0 mps 727 mmHg 39%
    01:00 +26°C° 0.1 mm 1 mps 727 mmHg 39%
    02:00 +26°C° 0.1 mm 1 mps 727 mmHg 39%
    03:00 +26°C° 0 mm 1 mps 727 mmHg 40%
    04:00 +25°C° 0 mm 1 mps 726 mmHg 41%
    05:00 +25°C° 0 mm 1 mps 726 mmHg 42%
    06:00 +26°C° 0 mm 1 mps 727 mmHg 39%
    07:00 +27°C° 0 mm 1 mps 727 mmHg 37%
    08:00 +28°C° 0 mm 1 mps 727 mmHg 34%
    09:00 +29°C° 0 mm 1 mps 727 mmHg 31%
    10:00 +31°C° 0 mm 1 mps 727 mmHg 28%
    11:00 +32°C° 0 mm 1 mps 727 mmHg 25%
    12:00 +33°C° 0 mm 1 mps 727 mmHg 24%
    13:00 +34°C° 0 mm 1 mps 727 mmHg 23%
    14:00 +35°C° 0 mm 1 mps 726 mmHg 22%
    15:00 +35°C° 0.1 mm 1 mps 726 mmHg 23%
    16:00 +35°C° 0.1 mm 1 mps 725 mmHg 23%
    17:00 +35°C° 0.1 mm 1 mps 725 mmHg 24%
    18:00 +34°C° 0 mm 1 mps 725 mmHg 27%
    19:00 +32°C° 0 mm 1 mps 726 mmHg 31%
    20:00 +31°C° 0 mm 1 mps 726 mmHg 35%
    21:00 +30°C° 0 mm 1 mps 726 mmHg 36%
    22:00 +29°C° 0 mm 1 mps 727 mmHg 37%
    23:00 +29°C° 0 mm 1 mps 727 mmHg 38%

    Day after tomorrow, 22 April, Monday

    Time Temperature Precipitation Wind Pressure Humidity
    00:00 +28°C° 0.1 mm 1 mps 727 mmHg 38%
    01:00 +28°C° 0.1 mm 1 mps 727 mmHg 39%
    02:00 +28°C° 0.1 mm 1 mps 726 mmHg 39%
    03:00 +27°C° 0.1 mm 1 mps 726 mmHg 40%
    04:00 +26°C° 0.1 mm 1 mps 726 mmHg 41%
    05:00 +26°C° 0.1 mm 1 mps 726 mmHg 42%
    06:00 +27°C° 0 mm 1 mps 726 mmHg 39%
    07:00 +28°C° 0 mm 1 mps 727 mmHg 36%
    08:00 +29°C° 0 mm 1 mps 727 mmHg 33%
    09:00 +31°C° 0 mm 1 mps 727 mmHg 31%
    10:00 +32°C° 0 mm 1 mps 727 mmHg 28%
    11:00 +34°C° 0 mm 1 mps 727 mmHg 26%
    12:00 +35°C° 0 mm 1 mps 727 mmHg 24%
    13:00 +36°C° 0 mm 1 mps 727 mmHg 23%
    14:00 +36°C° 0 mm 1 mps 727 mmHg 21%
    15:00 +37°C° 0 mm 1 mps 726 mmHg 21%
    16:00 +37°C° 0 mm 1 mps 726 mmHg 21%
    17:00 +38°C° 0 mm 2 mps 726 mmHg 21%
    18:00 +36°C° 0 mm 2 mps 726 mmHg 23%
    19:00 +34°C° 0 mm 1 mps 727 mmHg 26%
    20:00 +32°C° 0 mm 1 mps 727 mmHg 29%
    21:00 +32°C° 0 mm 1 mps 728 mmHg 31%
    22:00 +31°C° 0 mm 1 mps 728 mmHg 33%
    23:00 +28°C° 0 mm 0 mps 728 mmHg 35%

    23 April, Tuesday

    Time Temperature Precipitation Wind Pressure Humidity
    00:00 +29°C° 0 mm 1 mps 728 mmHg 35%
    01:00 +29°C° 0 mm 1 mps 728 mmHg 35%
    02:00 +28°C° 0 mm 1 mps 728 mmHg 34%
    03:00 +28°C° 0 mm 1 mps 728 mmHg 34%
    04:00 +27°C° 0 mm 1 mps 727 mmHg 34%
    05:00 +27°C° 0 mm 1 mps 727 mmHg 34%
    06:00 +28°C° 0 mm 1 mps 727 mmHg 32%
    07:00 +29°C° 0 mm 2 mps 728 mmHg 30%
    08:00 +30°C° 0 mm 2 mps 728 mmHg 27%
    09:00 +32°C° 0 mm 2 mps 728 mmHg 25%
    10:00 +33°C° 0 mm 1 mps 728 mmHg 23%
    11:00 +35°C° 0 mm 1 mps 728 mmHg 20%
    12:00 +36°C° 0 mm 1 mps 728 mmHg 19%
    13:00 +37°C° 0 mm 1 mps 728 mmHg 18%
    14:00 +39°C° 0 mm 1 mps 728 mmHg 17%
    15:00 +39°C° 0 mm 2 mps 727 mmHg 17%
    16:00 +39°C° 0 mm 2 mps 727 mmHg 18%
    17:00 +39°C° 0 mm 2 mps 727 mmHg 18%
    18:00 +37°C° 0 mm 2 mps 727 mmHg 20%
    19:00 +36°C° 0 mm 2 mps 728 mmHg 22%
    20:00 +34°C° 0 mm 2 mps 728 mmHg 24%
    21:00 +34°C° 0.1 mm 2 mps 728 mmHg 25%
    22:00 +32°C° 0.1 mm 2 mps 729 mmHg 27%
    23:00 +31°C° 0.1 mm 2 mps 729 mmHg 28%

    24 April, Wednesday

    Time Temperature Precipitation Wind Pressure Humidity
    00:00 +30°C° 0.1 mm 2 mps 729 mmHg 29%
    01:00 +30°C° 0.1 mm 2 mps 728 mmHg 29%
    02:00 +29°C° 0.1 mm 2 mps 728 mmHg 30%
    03:00 +29°C° 0.1 mm 2 mps 728 mmHg 32%
    04:00 +28°C° 0.1 mm 1 mps 728 mmHg 34%
    05:00 +28°C° 0.1 mm 1 mps 728 mmHg 35%
    06:00 +28°C° 0.2 mm 1 mps 728 mmHg 33%
    07:00 +29°C° 0.2 mm 1 mps 729 mmHg 31%
    08:00 +30°C° 0.2 mm 1 mps 729 mmHg 29%
    09:00 +31°C° 0.3 mm 1 mps 729 mmHg 27%
    10:00 +32°C° 0.3 mm 2 mps 730 mmHg 25%
    11:00 +35°C° 0.3 mm 2 mps 730 mmHg 23%
    12:00 +35°C° 0.1 mm 2 mps 729 mmHg 23%
    13:00 +36°C° 0.1 mm 3 mps 729 mmHg 22%
    14:00 +36°C° 0.1 mm 3 mps 728 mmHg 21%
    15:00 +35°C° 0.4 mm 4 mps 728 mmHg 27%
    16:00 +33°C° 0.4 mm 6 mps 728 mmHg 33%
    17:00 +31°C° 0.4 mm 8 mps 728 mmHg 40%
    18:00 +29°C° 0.2 mm 6 mps 728 mmHg 44%
    19:00 +28°C° 0.2 mm 4 mps 729 mmHg 49%
    20:00 +27°C° 0.2 mm 2 mps 729 mmHg 53%
    21:00 +27°C° 0.1 mm 2 mps 729 mmHg 54%
    22:00 +26°C° 0.1 mm 2 mps 729 mmHg 55%
    23:00 +26°C° 0.1 mm 3 mps 729 mmHg 55%

    25 April, Thursday

    Time Temperature Precipitation Wind Pressure Humidity
    00:00 +26°C° 0 mm 3 mps 729 mmHg 55%
    01:00 +26°C° 0 mm 2 mps 729 mmHg 55%
    02:00 +25°C° 0 mm 2 mps 728 mmHg 55%
    03:00 +25°C° 0 mm 2 mps 728 mmHg 55%
    04:00 +25°C° 0 mm 2 mps 728 mmHg 55%
    05:00 +24°C° 0 mm 2 mps 728 mmHg 55%
    06:00 +26°C° 0 mm 2 mps 729 mmHg 51%
    07:00 +27°C° 0 mm 2 mps 729 mmHg 46%
    08:00 +28°C° 0 mm 2 mps 729 mmHg 42%
    09:00 +30°C° 0 mm 2 mps 729 mmHg 38%
    10:00 +31°C° 0 mm 2 mps 729 mmHg 34%
    11:00 +34°C° 0 mm 2 mps 729 mmHg 30%
    12:00 +35°C° 0 mm 2 mps 729 mmHg 27%
    13:00 +36°C° 0 mm 2 mps 728 mmHg 24%
    14:00 +37°C° 0 mm 2 mps 728 mmHg 22%
    15:00 +37°C° 0 mm 2 mps 727 mmHg 20%
    16:00 +37°C° 0 mm 2 mps 727 mmHg 19%
    17:00 +38°C° 0 mm 3 mps 727 mmHg 18%
    18:00 +36°C° 0 mm 3 mps 727 mmHg 21%
    19:00 +34°C° 0 mm 2 mps 728 mmHg 24%
    20:00 +32°C° 0 mm 2 mps 728 mmHg 28%
    21:00 +31°C° 0 mm 2 mps 728 mmHg 30%
    22:00 +30°C° 0 mm 1 mps 728 mmHg 32%
    23:00 +29°C° 0 mm 1 mps 729 mmHg 34%
    Show more